Regional Weather Roundup
Issued by NWS Charleston, SC

Current Version | Previous Version | Graphics & Text | Print | Product List | Glossary On
Versions: 1 2 3 4 5 6 7 8 9 10 11 12 13 14 15 16 17 18 19 20 21 22 23 24 25 26 27 28 29 30 31 32 33 34 35 36 37 38 39 40 41 42 43 44 45 46 47 48 49 50
000 ASUS42 KCHS 251027 RWRCHS REGIONAL WEATHER ROUNDUP NATIONAL WEATHER SERVICE CHARLESTON SC 600 AM EDT MON MAY 25 2015 NOTE: "FAIR" INDICATES FEW OR NO CLOUDS BELOW 12,000 FEET WITH NO SIGNIFICANT WEATHER AND/OR OBSTRUCTIONS TO VISIBILITY. NOT ALL STATIONS ARE QUALITY CONTROLLED BY THE NATIONAL WEATHER SERVICE. USE DATA WITH CAUTION...ESPECIALLY DEWPOINT OBSERVATIONS. SCZ027-030-031-034>040-042>050-251100- ...SOUTHEAST SOUTH CAROLINA... CITY SKY/WX TMP DP RH WIND PRES REMARKS N CHARLESTON MOCLDY 66 61 84 NE7 30.28S WATERFRONT PAR N/A 73 64 73 E9 30.26S MOUNT PLEASANT LGT RAIN 64 61 88 E3 30.29S JOHNS ISLAND CLOUDY 72 64 78 E7 30.28S PINOPOLIS N/A 66 61 82 VRB3 30.23R MONCKS CORNER FAIR 61 57 88 CALM 30.30R SUMMERVILLE CLOUDY 63 61 94 CALM 30.29S BEAUFORT MCAS CLOUDY 74 65 73 E7 30.26S BEAUFORT ARPT FAIR 72 66 83 CALM 30.25F HILTON HEAD IS NOT AVBL WALTERBORO PTSUNNY 63 59 88 E5 30.29R ALLENDALE CLOUDY 66 61 82 CALM 30.27S HAZE ...SOUTHERN MIDLANDS AND PEE DEE... CITY SKY/WX TMP DP RH WIND PRES REMARKS GEORGETOWN NOT AVBL KINGSTREE NOT AVBL ORANGEBURG CLEAR 61 57 87 CALM 30.29S BARNWELL CLOUDY 64 61 88 E3 30.29S AIKEN PTSUNNY 59 55 88 CALM 30.33R MANNING FAIR 54 50 87 CALM 30.30S COLUMBIA CLEAR 59 54 83 CALM 30.30R SUMTER CLEAR 58 55 89 NE3 30.29S FLORENCE CLEAR 59 56 89 CALM 30.31S MYRTLE BEACH PTCLDY 70 57 64 SE9 30.33R N MYRTLE BEACH PTCLDY 72 58 61 SE5 30.31S $$ GAZ063-065-086>088-099>101-113>116-118-119-134>141-150-251100- ...SOUTHEAST GEORGIA... CITY SKY/WX TMP DP RH WIND PRES REMARKS SAVANNAH ARPT NOT AVBL HUNTER AAF CLOUDY 75 69 80 E9 30.21S FORT STEWART CLOUDY 73 68 83 CALM 30.22R STATESBORO CLOUDY 68 66 94 CALM 30.26R SYLVANIA CLOUDY 69 65 88 E5 30.27S CLAXTON CLOUDY 70 66 88 CALM 30.25R ...CSRA...CENTRAL AND FAR SOUTHEAST GEORGIA... CITY SKY/WX TMP DP RH WIND PRES REMARKS THOMSON CLOUDY 66 64 94 E3 30.32S AUGUSTA-BUSH MOCLDY 60 59 96 CALM 30.27S AUGUSTA-DANIEL PTCLDY 68 60 75 E5 30.28F SWAINSBORO CLOUDY 70 66 88 E6 30.26S VIDALIA CLOUDY 70 64 83 NE3 30.25R EASTMAN PTSUNNY 68 68 100 E5 30.26S HAZLEHURST PTSUNNY 69 68 96 CALM 30.22S ALMA MOCLDY 68 66 93 E3 30.22S FOG WAYCROSS CLEAR 68 68 100 CALM 30.22R FOG JESUP FAIR 72 70 94 CALM 30.23R BAXLEY MOCLDY 70 68 94 E3 30.22S BRUNSWICK N/A 73 70 88 E3 30.23R SAINT SIMONS NOT AVBL $$ SCZ027-028-034-036>038-045-046-048>050-GAZ119-141-251100- ...LAKE AND SUPPLEMENTAL COASTAL OBSERVATIONS... STATION/POSITION TIME TEMP WIND PRES WAVE SWELL AIR SEA DIR/SP/G HT/PER HT/PER/DIR (UTC) (F) (DEG/KT/KT) (MB) (FT/S) (FT/S/D) UPR LAKE MARION NOT AVBL WINYAH BAY 0900 72 120/ 7 1025.0 LAKE MURRAY 0900 66 80/ 4/ 6 1025.4S ACE BASIN NERRS NOT AVBL FORT PULASKI 1000 76 77 100/ 10/ 12 1024.5F SAPELO ISLAND 1000 73 100/ 4 1024.0R $$ ANZ835-935-AMZ111-154-330-350-352-354-370-450-454-472-251100- ...C-MAN AND BUOY OBSERVATIONS... STATION/POSITION TIME TEMP WIND PRES WAVE SWELL AIR SEA DIR/SP/G HT/PER HT/PER/DIR (UTC) (F) (DEG/KT/KT) (MB) (FT/S) (FT/S/D) BUOY 41004 0950 74 75 100/ 12/ 14 1024.9R 5/ 8 3/ 8 BUOY 41008 0950 74 75 160/ 4/ 6 1023.7R 5/ 8 5/ 90/ 8 FOLLY BEACH CMAN 1000 74 90/ 12/ 13 1025.4R CAPERS NEARSHORE 0908 74 120/ 12/ 16 1025.6R FRIPP NEARSHORE 0900 76 100/ 10/ 12 1023.7F STATION/POSITION TIME TEMP WIND PRES WAVE SWELL AIR SEA DIR/SP/G HT/PER HT/PER/DIR (UTC) (F) (DEG/KT/KT) (MB) (FT/S) (FT/S/D) 5E ST. MARYS GA 0921 78 N/A 5/ 8 FRYING PAN BUOY 0950 74 74 130/ 10/ 12 1027.1R 4/ 7 3/130/ 7 BUOY 41025 0950 72 77 150/ 6/ 8 1027.7R 2/ 8 2/100/ 8 CAPE LOOKOUT NC 1000 71 120/ 8/ 9 1027.0R BUOY 41002 0950 73 74 100/ 12/ 14 1026.4R 4/ 6 3/100/ 6 BUOY 41010 0920 78 79 80/ 10/ 12 1022.6R ST AUGUSTINE FL 1000 77 77 140/ 10/ 11 1023.1R $$

USA.gov is the U.S. government's official web portal to all federal, state and local government web resources and services.